Satellite-Ground Cal/Val Region Overpasses Predictions

Prediction of Satellite NPP Overpassing Cal/Val Region: PacNW

Region Location: (Latitude: 10.00, Longitude: 139.50) to (Latitude: 22.70, Longitude: 165.60).

Table of predicted overpasses for the next 14.0 days since TLE Epoch: 3/13/2022
Interval Starting Time Starting Location Ending Time Ending Location
1 03/13/2022 02:52:21 ( 10.47, 156.61) 03/13/2022 02:55:49 ( 22.68, 153.70)
2 03/13/2022 15:24:07 ( 22.66, 153.94) 03/13/2022 15:27:42 ( 10.04, 150.94)
3 03/14/2022 02:33:12 ( 10.02, 161.47) 03/14/2022 02:36:47 ( 22.64, 158.47)
4 03/14/2022 15:05:06 ( 22.64, 158.69) 03/14/2022 15:08:41 ( 10.02, 155.69)
5 03/15/2022 02:14:58 ( 12.81, 165.59) 03/15/2022 02:17:46 ( 22.67, 163.22)
6 03/15/2022 03:55:40 ( 10.05, 140.85) 03/15/2022 03:57:18 ( 15.81, 139.51)
7 03/15/2022 14:46:03 ( 22.68, 163.46) 03/15/2022 14:49:38 ( 10.06, 160.46)
8 03/16/2022 03:36:38 ( 10.01, 145.61) 03/16/2022 03:40:14 ( 22.70, 142.60)
9 03/16/2022 14:30:09 ( 11.68, 165.59) 03/16/2022 14:30:37 ( 10.03, 165.21)
10 03/16/2022 16:08:32 ( 22.65, 142.83) 03/16/2022 16:12:07 ( 10.03, 139.83)
11 03/17/2022 03:17:37 ( 10.04, 150.36) 03/17/2022 03:21:12 ( 22.66, 147.36)
12 03/17/2022 15:49:29 ( 22.69, 147.60) 03/17/2022 15:53:05 ( 10.01, 144.59)
13 03/18/2022 02:58:34 ( 10.00, 155.13) 03/18/2022 03:02:10 ( 22.68, 152.11)
14 03/18/2022 15:30:28 ( 22.66, 152.35) 03/18/2022 15:34:03 ( 10.04, 149.35)
15 03/19/2022 02:39:33 ( 10.03, 159.88) 03/19/2022 02:43:08 ( 22.65, 156.88)
16 03/19/2022 15:11:25 ( 22.70, 157.12) 03/19/2022 15:15:01 ( 10.02, 154.10)
17 03/20/2022 02:20:31 ( 10.05, 164.63) 03/20/2022 02:24:06 ( 22.68, 161.63)
18 03/20/2022 14:52:24 ( 22.67, 161.87) 03/20/2022 14:55:59 ( 10.05, 158.87)
19 03/21/2022 03:42:59 ( 10.03, 144.02) 03/21/2022 03:46:34 ( 22.65, 141.02)
20 03/21/2022 14:34:33 ( 18.48, 165.60) 03/21/2022 14:36:57 ( 10.02, 163.62)
21 03/21/2022 16:14:51 ( 22.70, 141.26) 03/21/2022 16:16:54 ( 15.48, 139.51)
22 03/22/2022 03:23:57 ( 10.05, 148.77) 03/22/2022 03:27:32 ( 22.67, 145.77)
23 03/22/2022 15:55:50 ( 22.67, 146.01) 03/22/2022 15:59:25 ( 10.05, 143.01)
24 03/23/2022 03:04:55 ( 10.02, 153.54) 03/23/2022 03:08:30 ( 22.64, 150.54)
25 03/23/2022 15:36:49 ( 22.64, 150.76) 03/23/2022 15:40:24 ( 10.02, 147.76)
26 03/24/2022 02:45:53 ( 10.05, 158.29) 03/24/2022 02:49:28 ( 22.67, 155.29)
27 03/24/2022 15:17:46 ( 22.68, 155.52) 03/24/2022 15:21:21 ( 10.06, 152.52)
28 03/25/2022 02:26:51 ( 10.02, 163.05) 03/25/2022 02:30:27 ( 22.70, 160.04)
29 03/25/2022 14:58:45 ( 22.65, 160.28) 03/25/2022 15:02:20 ( 10.03, 157.27)
30 03/26/2022 02:10:29 ( 19.44, 165.60) 03/26/2022 02:11:24 ( 22.67, 164.80)
31 03/26/2022 03:49:19 ( 10.05, 142.43) 03/26/2022 03:52:48 ( 22.32, 139.51)
32 03/26/2022 14:39:42 ( 22.68, 165.04) 03/26/2022 14:43:17 ( 10.06, 162.04)
